星链-34572 (STARLINK-34572)

导读 | 豆包AI

STARLINK-34572是美国太空探索技术公司(SpaceX)星链互联网星座中的一颗低轨卫星,于2025年6月28日发射入轨。该卫星运行在近地点约399公里、远地点约401公里的近地轨道上,轨道倾角约53.16度,每日绕地球约15.5圈,旨在为全球偏远、欠发达地区提供高速低延迟的宽带互联网接入服务。

基本信息
目录编号:
64720
目录名称:
STARLINK-34572
国际标识:
2025-142AA
轨道中心:
EARTH
卫星名称:
星链-34572
卫星全名:
星链-34572 (STARLINK-34572)
卫星状态:
在轨 (已飞行305 天)
发射日期:
2025-06-28 UTC
国别 :
美国 (US)
星等 :
--
轨道信息
数据来源 国际轨道数据
星历时间: 2026-04-29T13:56:08+0800
8小时前
查看轨道信息
半长轴: 6950.186km
偏心率: 0.0003761
轨道倾角: 70.002°
近地点辐角 268.228°
升交点赤经 186.987°
平近点角 91.845°
近地点: 569.435km
远地点: 574.663km
周期: 96.107分钟
每日圈数: 14.983324
详细信息
固有亮度:
5
最大亮度:
2.5
卫星平台:
Starlink V1.0
覆盖范围:
全球
运营商:
太空探索技术公司
运营商所在国:
美国
制造商(研发单位):
太空探索技术公司
制造商所在国:
美国
使用方式:
暂无
卫星简介
Starlink 计划是 SpaceX 推出的全球卫星互联网项目,通过发射低轨道卫星,为全球尤其是偏远地区提供高速、低延迟的互联网服务。自 2019 年起,Starlink 已部署数千颗卫星,旨在缩小全球数字鸿沟,推动互联网普及。该项目还为军事、航空等行业提供通信支持,带来广泛经济效益。
2D轨道图
3D轨道图
轨道高度分析图
轨道倾角分析图
轨道综合分析图
查看轨道综合分析图